Regional Weather Roundup
Issued by NWS Cleveland, OH

Home | Current Version | Previous Version | Graphics & Text | Print | Product List | Glossary On
Versions: 1 2 3 4 5 6 7 8 9 10 11 12 13 14 15 16 17 18 19 20 21 22 23 24 25 26 27 28 29 30 31 32 33 34 35 36 37 38 39 40 41 42 43 44 45 46 47 48 49 50
000
ASUS41 KCLE 301712
RWRCLE
OHIO REGIONAL WEATHER ROUNDUP
NATIONAL WEATHER SERVICE WILMINGTON, OH
100 PM EDT MON MAY 30 2016

NOTE: "FAIR" INDICATES FEW OR NO CLOUDS BELOW 12,000 FEET WITH NO
SIGNIFICANT WEATHER AND/OR OBSTRUCTIONS TO VISIBILITY.

OHZ001>008-015>018-024>027-034-035-043-044-301800-
   NORTHWEST OHIO

CITY           SKY/WX    TMP DP  RH WIND       PRES   REMARKS
DEFIANCE       FAIR      83  52  34 NW10G17   30.03S
FINDLAY        PTSUNNY   81  53  37 W6        30.03S
TOLEDO EXPRESS PTSUNNY   83  55  38 W6        30.01S
TOLEDO EXEC    FAIR      82  56  40 SW9       30.02S
LIMA           FAIR      81  57  43 W9        30.06S
$$

OHZ009>014-019>023-028>033-038-089-301800-
   NORTHEAST OHIO

CITY           SKY/WX    TMP DP  RH WIND       PRES   REMARKS
CLE-HOPKINS    FAIR      80  57  45 NW10      30.04S
CLE-LAKEFRONT  FAIR      72  63  73 W7        30.02S
CUY CO. ARPT   NOT AVBL
LORAIN-ELYRIA  FAIR      79  58  48 NW9       30.03S
ASHTABULA      FAIR      77  61  57 NW7       30.02F
AKRON-CANTON   PTSUNNY   80  58  46 NW10      30.03F
WOOSTER        PTSUNNY   80  58  46 NW7       30.04F
MANSFIELD      FAIR      79  59  50 W9        30.05S
YOUNGSTOWN     CLOUDY    77  58  51 W8        30.03S
$$

OHZ042-051>053-060>062-070>072-077>081-301800-
  SOUTHWEST OHIO

CITY           SKY/WX    TMP DP  RH WIND       PRES   REMARKS
CINC-COVINGTON FAIR      83  58  42 N6        30.05F
CINC-LUNKEN    FAIR      83  61  47 N10       30.04F
HAMILTON       FAIR      84  56  38 VRB7      30.04F
DAYTON         FAIR      81  56  42 N6        30.07F
WRIGHT-PAT AFB FAIR      81  56  42 NW8       30.05F
DAYTON GENERAL FAIR      82  54  37 VRB6      30.05F
WILMINGTON     FAIR      81  60  48 NW8       30.06F
$$

OHZ036-037-039>041-045>050-054>059-063>069-073>076-082>088-301800-
  CENTRAL AND SOUTHEAST OHIO

CITY           SKY/WX    TMP DP  RH WIND       PRES   REMARKS
COLUMBUS       PTSUNNY   80  60  50 N7        30.03F
OSU AIRPORT    FAIR      82  59  45 NW12      30.04F
BOLTON FIELD   MOSUNNY   77  61  57 CALM      30.04S
RICKENBACK AFB FAIR      79  59  49 W6        30.04S
NEWARK         FAIR      82  59  45 VRB6      30.03F
MARION         FAIR      78  56  46 W9        30.05S
LANCASTER      FAIR      81  62  52 N7        30.05S
ZANESVILLE     FAIR      80  58  46 CALM      30.04S
NEW PHILLY     FAIR      82  55  39 W7        30.03F
$$



USA.gov is the U.S. government's official web portal to all federal, state and local government web resources and services.